Location: Murdochville
(48.9591°N, 65.4950°W)
Time: 21:21:53
(UTC-04:00)

Envisat - Pass Details

Date: 28 April 2026
Orbit: 761 x 762 km, 98.4° (Epoch: 15 May)

Event Time Altitude Azimuth Distance (km) Brightness Sun altitude
Rises 02:22:36 0° 21° (NNE) 3,235 7.7 -21.2°
Reaches altitude 10° 02:25:07 10° 30° (NNE) 2,304 6.7 -21.0°
Maximum altitude 02:29:45 35° 96° (E) 1,211 4.2 -20.6°
Enters shadow 02:33:01 17° 153° (SSE) 1,833 4.7 -20.3°
